Theta_e
339 327 329 327 328 330 328 326 328 330 330 330 328 324 316 314 312 309 307 308 308 308 308 308 308 308 308 308 308 308 309 310 312 316 321 328 329 324 318 323 325 324 322
336 327 328 325 326 326 327 330 331 331 330 329 322 316 313 311 310 307 308 308 308 307 307 307 308 308 309 309 310 310 309 308 322 327 328 331 327 323 318 321 323 323 322
333 328 328 327 327 329 331 332 332 331 329 322 316 313 311 310 308 308 308 308 308 309 309 310 310 310 310 310 310 310 312 315 322 326 326 332 329 326 323 324 322 322 322
331 329 329 329 330 332 333 333 332 330 323 316 313 312 311 309 308 308 309 311 311 311 310 310 309 309 309 309 309 312 321 322 323 326 324 330 328 319 319 317 315 316 319
333 331 330 330 331 332 333 333 331 325 317 313 312 310 310 308 308 310 312 310 310 310 309 310 311 311 312 312 312 312 316 316 317 323 322 321 323 312 314 314 315 315 316
336 330 330 331 332 333 333 332 329 319 314 312 312 311 309 308 311 311 310 310 310 310 311 312 313 313 313 313 313 313 314 317 316 317 318 318 309 309 311 312 315 317 317
336 333 333 333 332 333 332 331 323 317 311 312 311 310 308 311 312 310 311 311 311 312 312 313 313 313 313 313 313 315 315 320 320 318 318 317 314 310 309 310 311 312 314
335 326 330 333 333 333 331 327 321 314 311 312 310 309 310 314 312 311 311 312 312 313 314 314 313 313 314 315 315 317 317 317 318 319 319 318 317 312 312 311 310 309 309
327 327 330 333 333 331 329 324 319 312 311 311 310 309 315 313 312 312 312 312 313 313 314 314 313 314 318 318 318 316 318 317 318 320 319 319 317 312 314 313 313 312 310
331 324 333 334 332 329 325 321 317 310 311 311 310 315 314 313 313 313 313 313 314 314 314 314 314 315 320 320 318 316 317 316 317 316 317 317 316 310 313 314 315 314 313
324 326 332 332 329 324 321 320 315 310 312 312 313 317 325 324 325 327 319 313 314 314 314 315 317 320 320 320 319 317 317 316 315 315 315 315 314 311 310 313 315 316 316
328 332 331 327 328 330 323 318 313 312 321 320 317 326 328 326 327 325 321 320 321 320 321 322 322 321 321 320 318 317 317 315 314 314 314 313 313 312 310 311 312 313 315
331 333 333 331 330 331 325 323 322 325 329 329 326 328 328 324 326 327 324 325 324 323 323 322 322 321 320 318 316 316 315 314 314 313 312 313 312 312 311 309 309 310 311
333 331 329 327 329 328 324 324 325 327 329 329 326 327 325 327 328 324 324 324 324 324 322 322 321 320 318 316 315 315 314 314 312 312 312 312 312 311 310 310 308 306 306
331 325 322 328 330 326 326 325 328 327 327 327 327 321 323 328 326 321 317 320 318 322 322 321 320 319 317 315 315 313 312 312 311 311 311 311 311 310 310 309 308 307 305
332 322 319 328 321 326 326 326 325 323 323 324 325 325 322 322 318 319 318 320 321 322 321 319 316 315 314 313 312 312 311 310 309 309 310 309 308 309 310 308 307 306 306
331 330 329 327 323 329 326 326 324 319 319 320 320 322 325 324 323 322 322 321 321 320 318 314 314 313 312 311 310 310 310 309 308 307 307 308 307 307 310 309 307 306 305
330 330 329 327 328 329 326 321 319 320 320 320 320 321 323 322 322 322 320 319 318 315 313 312 311 311 311 311 310 308 308 307 307 305 306 306 305 309 309 308 306 305 303
332 331 330 329 329 327 321 319 322 322 321 320 321 320 320 319 318 318 317 315 312 311 312 312 312 311 310 309 308 306 305 305 304 304 304 303 304 308 307 305 304 303 302
333 333 332 330 328 325 323 324 324 323 324 323 320 319 316 313 312 313 314 312 312 312 312 311 310 309 308 307 303 302 304 304 303 302 304 304 304 304 304 303 302 301 301
332 334 333 331 330 328 325 325 325 324 321 320 318 316 314 313 312 311 312 312 311 311 310 309 306 304 304 303 303 303 303 302 301 301 302 301 301 302 301 301 300 300 298
334 334 333 330 330 327 326 326 325 322 320 318 316 313 312 312 312 311 311 310 310 309 306 303 303 303 304 303 302 301 302 301 300 300 300 299 298 298 298 299 299 297 296
333 333 332 329 328 328 327 324 323 321 318 316 314 313 312 312 311 310 309 307 304 304 304 303 303 303 303 302 300 300 300 300 300 299 298 298 297 296 296 295 295 295 294
332 331 330 328 328 326 324 323 321 318 316 316 314 313 312 311 309 307 304 303 303 303 304 303 303 303 302 301 300 300 299 298 297 296 296 295 294 294 294 294 293 293 293
330 330 330 327 325 324 319 319 319 318 316 314 313 310 307 306 304 301 301 300 299 298 300 301 302 302 302 300 299 299 297 296 296 295 294 294 293 293 293 293 293 293 292
330 327 325 323 319 318 318 318 317 315 313 311 308 307 306 302 300 299 298 297 295 298 299 300 301 301 301 300 299 298 296 295 294 294 294 293 293 293 292 292 292 292 292
Wind_Speed
24 28 25 24 23 22 21 20 18 15 12 12 11 9 9 10 11 12 14 14 14 15 15 15 15 15 14 13 13 13 13 14 14 12 9 9 9 13 7 6 7 11 12
27 30 27 24 25 24 22 19 16 14 12 11 10 9 9 10 11 13 14 13 13 13 14 15 15 15 14 14 14 14 14 16 19 14 11 7 11 14 10 9 10 10 11
28 31 28 26 25 23 21 17 15 14 12 10 9 9 9 11 12 12 12 11 11 13 15 16 16 17 17 17 18 18 18 17 17 15 14 5 14 14 11 10 11 11 10
31 32 30 26 24 22 19 16 14 13 11 9 8 10 10 12 11 11 11 12 14 15 17 18 19 20 21 21 21 20 20 18 17 16 9 11 14 11 9 10 10 10 10
27 27 28 25 22 20 17 14 14 12 10 10 9 10 10 12 10 10 12 14 16 17 19 19 21 22 22 22 22 20 17 18 18 13 8 3 9 12 10 9 9 9 8
26 25 26 22 19 18 16 13 13 12 9 10 10 10 11 11 10 12 15 16 17 18 18 19 20 20 21 22 22 19 15 16 18 12 7 10 14 14 14 12 10 9 9
27 27 22 18 16 15 14 13 12 11 9 10 9 11 11 11 12 14 15 16 16 17 17 16 16 16 18 21 23 22 18 14 16 12 12 11 17 16 14 13 13 13 11
27 36 22 20 17 13 13 13 11 10 10 10 10 11 11 11 12 13 14 15 14 14 13 13 12 14 17 19 23 20 20 19 14 14 9 10 17 19 14 13 13 13 13
29 31 29 21 19 16 14 12 10 9 10 9 10 11 11 11 10 10 10 11 10 10 9 9 10 11 14 17 19 18 19 18 14 14 13 14 17 18 15 13 13 12 13
18 27 21 21 17 17 14 11 9 8 9 9 10 11 11 10 9 6 6 6 6 5 5 7 9 12 12 14 14 17 15 15 15 16 16 18 18 18 14 14 14 13 13
26 20 16 16 15 13 12 11 9 9 10 10 11 15 13 12 9 6 8 4 4 5 7 9 11 12 11 14 13 14 12 13 14 14 17 18 20 23 17 15 14 14 14
25 20 18 16 13 11 11 10 10 12 13 12 12 13 9 8 5 3 6 8 8 9 9 10 13 11 9 11 8 12 10 13 9 13 16 20 20 23 20 16 15 15 14
24 25 23 22 19 15 9 13 13 12 11 10 7 10 5 6 2 4 4 4 9 9 5 10 12 9 15 13 16 13 13 13 11 11 17 19 20 22 23 21 18 16 15
24 25 22 22 21 13 17 14 12 10 7 8 4 11 6 6 10 9 11 6 1 4 9 9 8 10 7 12 13 16 17 12 14 13 16 19 21 21 22 24 22 19 17
17 22 25 24 19 19 15 18 17 17 14 11 8 10 12 10 9 8 9 15 11 8 10 7 10 14 16 13 14 14 14 18 16 16 17 19 21 23 20 21 22 20 19
13 15 20 19 17 20 17 19 17 13 10 10 10 8 8 7 9 9 16 17 10 13 17 13 9 14 11 11 14 17 17 18 16 14 16 20 21 24 20 17 17 20 21
15 17 20 18 22 20 19 18 19 16 4 7 5 9 11 10 12 12 14 9 13 15 12 12 12 12 16 18 16 18 18 19 19 17 21 20 25 26 18 19 20 19 26
20 19 20 19 23 22 20 25 21 9 21 14 18 10 9 10 9 9 3 8 10 10 11 15 13 14 17 17 19 23 21 21 23 21 21 18 18 19 18 19 21 26 26
20 21 20 20 24 21 26 23 11 14 9 7 7 2 3 2 2 4 6 11 10 6 7 10 13 18 21 21 21 20 24 24 18 19 21 22 16 16 16 19 21 20 23
19 21 21 20 15 19 25 15 12 9 8 5 5 3 4 2 2 3 7 10 9 5 9 14 20 19 20 21 23 21 21 17 18 15 24 16 17 15 10 16 20 14 13
20 19 17 22 21 17 19 9 8 6 9 11 11 8 7 2 2 0 7 5 7 11 13 16 19 19 21 20 19 17 18 22 15 14 13 11 12 15 18 19 16 17 20
16 17 19 18 16 11 9 10 10 12 11 11 9 6 5 4 5 2 11 12 13 17 19 17 19 21 17 14 17 21 20 21 19 18 22 22 21 18 20 19 23 22 21
18 17 15 11 11 15 12 15 15 18 16 12 2 4 4 8 6 10 12 14 18 18 16 17 20 15 17 16 14 14 20 16 25 21 19 22 23 22 23 21 19 21 21
21 18 12 14 13 16 18 16 13 11 12 13 13 10 0 7 8 7 8 12 13 18 21 17 15 19 21 18 15 15 20 23 22 27 18 18 21 20 21 22 21 21 20
16 16 18 19 18 17 13 18 16 14 13 10 8 2 1 7 9 11 13 17 19 21 20 21 18 20 21 19 17 19 18 17 18 20 25 19 21 23 23 23 20 22 23
21 22 24 19 16 16 16 17 18 17 16 11 7 4 10 11 10 12 16 19 18 16 16 17 19 19 19 17 22 16 14 15 17 17 19 23 24 24 22 24 22 22 21
Wind_Direction
165 153 149 150 148 144 139 132 130 125 121 116 104 91 79 74 72 75 74 72 70 68 64 63 59 58 55 52 48 47 45 45 48 52 43 21 26 10 338 12 345 352 5
159 150 149 148 145 142 138 135 132 127 122 114 101 85 84 82 82 82 79 75 71 69 66 63 58 52 50 47 46 45 47 56 66 53 23 31 36 16 354 2 360 358 359
157 148 149 148 145 142 139 138 132 128 120 109 102 103 94 95 94 89 85 80 76 70 66 63 61 59 55 50 48 50 57 66 66 65 35 57 26 8 3 23 20 17 13
155 150 150 150 147 144 140 138 129 124 119 112 112 109 105 102 99 92 83 79 76 74 73 70 67 64 62 58 57 63 69 65 61 62 62 49 360 7 17 14 14 20 4
149 154 149 149 149 141 136 137 129 127 127 121 121 113 112 107 101 93 89 86 84 83 78 74 71 67 62 57 53 59 69 55 49 67 351 329 346 360 14 12 7 8 8
145 152 147 148 142 145 137 134 137 134 130 126 121 116 116 107 99 96 95 92 89 85 82 80 75 65 58 51 44 43 64 63 58 27 347 345 7 11 6 6 359 359 356
156 147 142 137 147 142 136 143 139 135 128 125 126 127 121 111 104 104 100 96 91 89 84 77 66 58 48 42 36 44 52 58 54 9 342 341 6 7 9 7 1 355 354
154 131 151 158 153 141 144 146 142 135 130 131 130 128 118 112 113 111 107 101 95 90 83 73 58 45 38 31 31 42 42 42 41 32 343 354 356 355 360 3 4 2 355
143 145 162 151 154 151 146 144 140 129 124 125 128 124 115 110 113 113 101 95 93 87 80 63 48 33 30 27 24 41 33 21 42 8 345 344 352 345 344 345 347 350 350
138 115 155 153 150 145 143 142 136 120 122 128 127 116 107 102 97 92 103 92 79 69 50 34 23 19 26 13 19 25 24 9 32 348 335 331 331 337 331 327 326 329 332
129 145 152 144 140 136 146 141 134 120 117 121 122 102 88 68 47 26 18 37 21 14 10 7 6 16 23 13 3 10 353 354 22 328 326 319 319 325 326 328 323 318 316
141 149 143 131 126 119 128 129 119 112 104 108 118 98 94 139 160 24 30 6 356 357 354 6 358 0 2 330 328 322 332 347 358 337 314 316 315 316 321 319 317 319 317
150 150 145 133 128 144 120 99 100 109 119 125 134 101 196 123 68 66 356 354 350 342 3 347 349 323 330 337 343 330 328 333 328 305 309 313 316 319 318 316 315 312 307
151 149 150 145 138 159 123 123 124 124 114 96 132 166 160 153 183 186 193 188 56 336 348 333 324 309 299 327 322 318 332 319 327 318 318 313 316 319 318 316 312 308 305
143 150 151 144 155 140 138 143 151 149 160 162 195 197 193 200 222 229 223 303 285 279 274 276 284 294 309 325 319 326 317 322 321 321 301 302 314 316 314 317 315 311 307
152 150 146 155 160 141 157 163 160 157 162 200 210 219 220 252 234 271 270 304 267 263 280 299 313 315 299 311 322 305 311 307 315 315 306 308 306 305 300 302 310 314 311
153 146 150 165 143 164 175 161 150 148 137 233 301 273 259 260 273 287 286 283 274 285 293 294 289 307 308 312 300 306 310 307 298 301 301 290 305 291 288 299 305 304 304
158 157 161 160 161 181 177 158 152 179 253 273 291 298 267 274 274 262 291 282 296 298 304 303 315 294 301 308 311 314 318 296 288 298 300 292 300 292 288 294 295 302 307
170 161 165 171 185 190 170 166 197 271 263 257 271 153 143 171 166 145 238 274 301 304 301 300 283 302 312 309 306 307 300 294 303 296 290 297 284 291 283 294 292 297 308
168 177 177 185 210 191 181 190 238 242 270 227 127 193 121 147 198 159 303 308 319 292 280 285 304 310 309 302 302 300 302 305 299 299 316 285 278 281 279 305 302 305 279
180 186 193 198 204 199 193 215 201 178 129 133 177 171 158 236 327 196 213 238 269 280 291 300 305 303 295 307 306 305 295 296 293 299 300 291 303 304 301 291 298 306 305
171 191 200 207 212 170 155 167 176 158 148 175 206 177 211 199 274 223 288 292 281 289 297 304 296 304 299 297 304 300 312 306 312 285 296 311 310 300 309 294 291 307 304
191 204 215 206 169 146 160 161 166 168 174 194 179 132 236 289 276 295 295 297 306 305 300 298 302 301 291 276 306 298 318 313 313 312 297 294 303 304 303 311 309 299 301
197 203 202 165 159 164 163 171 183 195 179 162 160 192 55 316 316 315 305 302 301 304 303 298 290 281 286 299 283 291 286 297 316 318 314 304 304 311 310 310 310 305 300
186 165 164 164 167 164 168 173 166 177 165 168 182 160 292 258 266 274 273 277 284 284 286 293 289 285 279 273 283 286 297 294 299 299 311 314 307 298 297 316 309 305 306
166 167 168 165 161 166 170 173 181 163 159 174 190 252 261 281 280 281 285 296 302 300 293 296 290 279 272 265 282 284 283 293 297 301 307 309 310 305 301 300 313 312 310